Regional Weather Roundup
Issued by NWS

Home | Current Version | Previous Version | Text Only | Print | Product List | Glossary Off
Versions: 1 2 3 4 5 6 7 8 9 10 11 12 13 14 15 16 17 18 19 20 21 22 23 24 25 26 27 28 29 30 31 32 33 34 35 36 37 38 39 40 41 42 43 44 45 46 47 48 49 50

483
ASUS44 KLIX 290901
RWRLA
LOUISIANA WEATHER ROUNDUP
NATIONAL WEATHER SERVICE NEW ORLEANS LA
300 AM CST THU JAN 29 2015

NOTE: "FAIR" INDICATES FEW OR NO CLOUDS BELOW 12,000 FEET WITH NO
      SIGNIFICANT WEATHER AND/OR OBSTRUCTIONS TO VISIBILITY.
      SKY/WX - SKY CONDITION AND SIGNIFICANT WEATHER.
      TMP - AIR TEMPERATURE.    DP   - DEWPOINT TEMPERATURE.
      RH  - RELATIVE HUMIDITY.  PRES - PRESSURE.
      HX  - HEAT INDEX.         WCI  - WIND CHILL INDEX.

*  THESE STATIONS ARE NOT NWS OR FAA STATIONS AND ARE NOT UNDER
   NWS QUALITY CONTROL.

LAZ040-048-061>063-065-066-069-291000-
SOUTHEAST LOUISIANA

CITY           SKY/WX    TMP DP  RH WIND       PRES   REMARKS
N.O. AUDUBON     N/A     50  50 100 MISG        N/A
N.O. INTL ARPT PTCLDY    47  43  86 CALM      30.23S
N.O. LAKEFRONT CLEAR     52  48  86 E5        30.24S
N.O. DOWNTOWN* NOT AVBL
SLIDELL        CLEAR     39  37  92 CALM      30.23S
BATON ROUGE    CLEAR     42  38  85 CALM      30.22S
BOOTHVILLE     CLEAR     49  46  90 CALM      30.24S
BELLE CHASSE   PTCLDY    41  37  86 CALM      30.23R FOG
BOGALUSA*        N/A     38  35  89 CALM      30.23F
GALLIANO*      NOT AVBL
NEW ROADS*     NOT AVBL
GONZALES*      NOT AVBL
HAMMOND*       NOT AVBL
HOUMA*         PTCLDY    43  43 100 CALM      30.23S FOG
PORT FOURCHON* SUNNY     63  57  82 SE6       30.26S

$$

LAZ041-044-053-054-291000-
SOUTHWEST LOUISIANA

CITY           SKY/WX    TMP DP  RH WIND       PRES   REMARKS
LAKE CHARLES   FOG       50  49  96 S3        30.19S VSB 1/2
LAFAYETTE      CLEAR     52  50  93 S3        30.21F
PATTERSON      CLEAR     48  46  93 CALM      30.23S
SALT POINT       N/A     53  53 100 SE5       30.21S
NEW IBERIA     FOG       48  47  96 S5        30.22F VSB 3/4
CHENAULT AIRPK FOG       50  50 100 S3        30.20S VSB 3/4

$$

LAZ027-028-291000-
CENTRAL LOUISIANA

CITY           SKY/WX    TMP DP  RH WIND       PRES   REMARKS
FORT POLK      FOG       55  54  97 S7        30.18R VSB 1/2
ALEXANDRIA INT CLEAR     53  50  89 S7        30.17S
ALEXANDRIA     CLEAR     53  48  83 S6        30.18S

$$

LAZ001-002-291000-
NORTHWEST LOUISIANA

CITY           SKY/WX    TMP DP  RH WIND       PRES   REMARKS
SHREVEPORT     PTCLDY    56  51  84 S10       30.10F
BARKSDALE AFB  CLEAR     49  47  94 S7        30.11F
DTN SHREVEPORT CLEAR     55  49  80 S10       30.11F

$$

LAZ014-016-291000-
NORTHEAST LOUISIANA

CITY           SKY/WX    TMP DP  RH WIND       PRES   REMARKS
MONROE         CLEAR     54  44  69 S9        30.14F
TALLULAH       CLEAR     50  41  71 S8        30.18F

$$




USA.gov is the U.S. government's official web portal to all federal, state and local government web resources and services.